owner,sensor,date,latitude,longitude,vertical_datum,direction_of_sea_water_velocity,sea_water_speed,upward_sea_water_velocity,qcFlag 
TABS,ioos:station:wmo:42048:1,2002-04-01T00:00:00Z,27.9396,-96.8429,2.0,341.0233818,15.71406058,-99999.0,'11111222,11111222,99999999' 
TABS,ioos:station:wmo:42048:1,2002-04-01T00:30:00Z,27.9396,-96.8429,2.0,352.3789561,19.90584085,-99999.0,'11111222,11111222,99999999' 
TABS,ioos:station:wmo:42048:1,2002-04-01T01:00:00Z,27.9396,-96.8429,2.0,352.8504442,20.0861868,-99999.0,'11111222,11111222,99999999' 
TABS,ioos:station:wmo:42048:1,2002-04-01T01:30:00Z,27.9396,-96.8429,2.0,0.059005354,19.49001026,-99999.0,'11111222,11111222,99999999' 
TABS,ioos:station:wmo:42048:1,2002-04-01T02:00:00Z,27.9396,-96.8429,2.0,358.46289,17.14617158,-99999.0,'11111222,11111222,99999999' 
TABS,ioos:station:wmo:42048:1,2002-04-01T02:30:00Z,27.9396,-96.8429,2.0,350.2218466,19.37142741,-99999.0,'11111222,11111222,99999999' 
TABS,ioos:station:wmo:42048:1,2002-04-01T03:00:00Z,27.9396,-96.8429,2.0,357.827088,17.93289714,-99999.0,'11111222,11111222,99999999' 
TABS,ioos:station:wmo:42048:1,2002-04-01T03:30:00Z,27.9396,-96.8429,2.0,2.975418037,20.03700826,-99999.0,'11111222,11111222,99999999' 
TABS,ioos:station:wmo:42048:1,2002-04-01T04:00:00Z,27.9396,-96.8429,2.0,18.21726306,21.62381095,-99999.0,'11111222,11111222,99999999' 
TABS,ioos:station:wmo:42048:1,2002-04-01T04:30:00Z,27.9396,-96.8429,2.0,31.87914485,20.18452873,-99999.0,'11111222,11111222,99999999' 
TABS,ioos:station:wmo:42048:1,2002-04-01T05:00:00Z,27.9396,-96.8429,2.0,34.4104598,17.43005737,-99999.0,'11111222,11111222,99999999' 
TABS,ioos:station:wmo:42048:1,2002-04-01T05:30:00Z,27.9396,-96.8429,2.0,35.38039992,18.61829208,-99999.0,'11111222,11111222,99999999' 
TABS,ioos:station:wmo:42048:1,2002-04-01T06:00:00Z,27.9396,-96.8429,2.0,45.31520184,15.42930329,-99999.0,'11111222,11111222,99999999' 
TABS,ioos:station:wmo:42048:1,2002-04-01T06:30:00Z,27.9396,-96.8429,2.0,47.04550894,15.05682569,-99999.0,'11111222,11111222,99999999' 
TABS,ioos:station:wmo:42048:1,2002-04-01T07:00:00Z,27.9396,-96.8429,2.0,39.82164974,13.78829213,-99999.0,'11111222,11111222,99999999' 
TABS,ioos:station:wmo:42048:1,2002-04-01T08:30:00Z,27.9396,-96.8429,2.0,26.8659613,11.92735092,-99999.0,'11111222,11111222,99999999' 
TABS,ioos:station:wmo:42048:1,2002-04-01T09:00:00Z,27.9396,-96.8429,2.0,43.55446519,8.968968726,-99999.0,'11133222,11111222,99999999' 
TABS,ioos:station:wmo:42048:1,2002-04-01T09:30:00Z,27.9396,-96.8429,2.0,23.90419835,8.958403876,-99999.0,'11133222,11111222,99999999' 
TABS,ioos:station:wmo:42048:1,2002-04-01T10:00:00Z,27.9396,-96.8429,2.0,24.42796846,5.876002042,-99999.0,'11133222,11111222,99999999' 
TABS,ioos:station:wmo:42048:1,2002-04-01T10:30:00Z,27.9396,-96.8429,2.0,38.36760612,7.040404818,-99999.0,'11133222,11111222,99999999' 
TABS,ioos:station:wmo:42048:1,2002-04-01T11:00:00Z,27.9396,-96.8429,2.0,32.34072805,7.066066798,-99999.0,'11133222,11111222,99999999' 
TABS,ioos:station:wmo:42048:1,2002-04-01T11:30:00Z,27.9396,-96.8429,2.0,35.37427588,7.738636831,-99999.0,'11133222,11111222,99999999' 
TABS,ioos:station:wmo:42048:1,2002-04-01T12:00:00Z,27.9396,-96.8429,2.0,18.3046024,6.941217472,-99999.0,'11133222,11111222,99999999' 
TABS,ioos:station:wmo:42048:1,2002-04-01T12:30:00Z,27.9396,-96.8429,2.0,38.29400678,6.35796351,-99999.0,'11133222,11111222,99999999' 
TABS,ioos:station:wmo:42048:1,2002-04-01T13:00:00Z,27.9396,-96.8429,2.0,43.6994404,7.164837751,-99999.0,'11133222,11111222,99999999' 
TABS,ioos:station:wmo:42048:1,2002-04-01T13:30:00Z,27.9396,-96.8429,2.0,40.18279916,5.641427124,-99999.0,'11133222,11111222,99999999' 
TABS,ioos:station:wmo:42048:1,2002-04-01T14:00:00Z,27.9396,-96.8429,2.0,37.49703538,5.848350195,-99999.0,'11133222,11111222,99999999' 
TABS,ioos:station:wmo:42048:1,2002-04-01T14:30:00Z,27.9396,-96.8429,2.0,49.23285761,8.239053344,-99999.0,'11133222,11111222,99999999' 
TABS,ioos:station:wmo:42048:1,2002-04-01T15:00:00Z,27.9396,-96.8429,2.0,59.13326273,7.094906624,-99999.0,'11133222,11111222,99999999' 
TABS,ioos:station:wmo:42048:1,2002-04-01T15:30:00Z,27.9396,-96.8429,2.0,81.10897884,5.11141859,-99999.0,'11133222,11111222,99999999' 
TABS,ioos:station:wmo:42048:1,2002-04-01T16:00:00Z,27.9396,-96.8429,2.0,58.78167024,3.858756276,-99999.0,'11133222,11111222,99999999' 
TABS,ioos:station:wmo:42048:1,2002-04-01T16:30:00Z,27.9396,-96.8429,2.0,66.80146373,0.990050504,-99999.0,'11133222,11111222,99999999' 
TABS,ioos:station:wmo:42048:1,2002-04-01T17:00:00Z,27.9396,-96.8429,2.0,41.71923213,1.111980216,-99999.0,'11133222,11111222,99999999' 
TABS,ioos:station:wmo:42048:1,2002-04-01T17:30:00Z,27.9396,-96.8429,2.0,240.4608659,0.689637586,-99999.0,'11133222,11111222,99999999' 
TABS,ioos:station:wmo:42048:1,2002-04-01T18:00:00Z,27.9396,-96.8429,2.0,231.7317159,3.196951673,-99999.0,'11133222,11111222,99999999' 
TABS,ioos:station:wmo:42048:1,2002-04-01T18:30:00Z,27.9396,-96.8429,2.0,258.9102095,5.095134934,-99999.0,'11133222,11111222,99999999' 
TABS,ioos:station:wmo:42048:1,2002-04-01T19:00:00Z,27.9396,-96.8429,2.0,316.6063149,2.270704736,-99999.0,'11133222,11111222,99999999' 
TABS,ioos:station:wmo:42048:1,2002-04-01T19:30:00Z,27.9396,-96.8429,2.0,278.6959035,5.159302278,-99999.0,'11133222,11111222,99999999' 
TABS,ioos:station:wmo:42048:1,2002-04-01T20:00:00Z,27.9396,-96.8429,2.0,274.7180124,6.201007983,-99999.0,'11133222,11111222,99999999' 
TABS,ioos:station:wmo:42048:1,2002-04-01T20:30:00Z,27.9396,-96.8429,2.0,282.7335285,8.2119547,-99999.0,'11133222,11111222,99999999' 
TABS,ioos:station:wmo:42048:1,2002-04-01T21:00:00Z,27.9396,-96.8429,2.0,285.5917874,9.115421,-99999.0,'11133222,11111222,99999999' 
TABS,ioos:station:wmo:42048:1,2002-04-01T21:30:00Z,27.9396,-96.8429,2.0,294.0428843,9.449835977,-99999.0,'11133222,11111222,99999999' 
TABS,ioos:station:wmo:42048:1,2002-04-01T22:00:00Z,27.9396,-96.8429,2.0,287.9707775,11.70081194,-99999.0,'11111222,11111222,99999999' 
TABS,ioos:station:wmo:42048:1,2002-04-01T22:30:00Z,27.9396,-96.8429,2.0,296.8824963,10.50520823,-99999.0,'11111222,11111222,99999999' 
TABS,ioos:station:wmo:42048:1,2002-04-01T23:00:00Z,27.9396,-96.8429,2.0,306.2867265,10.40853976,-99999.0,'11111222,11111222,99999999' 
TABS,ioos:station:wmo:42048:1,2002-04-01T23:30:00Z,27.9396,-96.8429,2.0,311.6489925,9.434797295,-99999.0,'11133222,11111222,99999999' 
TABS,ioos:station:wmo:42048:1,2002-04-02T00:00:00Z,27.9396,-96.8429,2.0,322.3802534,6.110523709,-99999.0,'11133222,11111222,99999999' 
TABS,ioos:station:wmo:42048:1,2002-04-02T00:30:00Z,27.9396,-96.8429,2.0,297.2720567,4.713989818,-99999.0,'11133222,11111222,99999999' 
TABS,ioos:station:wmo:42048:1,2002-04-02T01:00:00Z,27.9396,-96.8429,2.0,288.9546083,3.140270689,-99999.0,'11133222,11111222,99999999' 
TABS,ioos:station:wmo:42048:1,2002-04-02T01:30:00Z,27.9396,-96.8429,2.0,273.2977596,2.434029581,-99999.0,'11133222,11111222,99999999' 
TABS,ioos:station:wmo:42048:1,2002-04-02T02:00:00Z,27.9396,-96.8429,2.0,276.1992437,2.685702888,-99999.0,'11133222,11111222,99999999' 
TABS,ioos:station:wmo:42048:1,2002-04-02T02:30:00Z,27.9396,-96.8429,2.0,273.4897377,1.643045952,-99999.0,'11133222,11111222,99999999' 
TABS,ioos:station:wmo:42048:1,2002-04-02T03:00:00Z,27.9396,-96.8429,2.0,193.6322004,3.097256851,-99999.0,'11133222,11111222,99999999' 
TABS,ioos:station:wmo:42048:1,2002-04-02T03:30:00Z,27.9396,-96.8429,2.0,216.173334,3.456255199,-99999.0,'11133222,11111222,99999999' 
TABS,ioos:station:wmo:42048:1,2002-04-02T04:00:00Z,27.9396,-96.8429,2.0,201.9776832,5.424186575,-99999.0,'11133222,11111222,99999999' 
TABS,ioos:station:wmo:42048:1,2002-04-02T04:30:00Z,27.9396,-96.8429,2.0,204.7921716,4.62640249,-99999.0,'11133222,11111222,99999999' 
TABS,ioos:station:wmo:42048:1,2002-04-02T05:00:00Z,27.9396,-96.8429,2.0,214.8773503,6.155720916,-99999.0,'11133222,11111222,99999999' 
TABS,ioos:station:wmo:42048:1,2002-04-02T05:30:00Z,27.9396,-96.8429,2.0,217.515469,7.274462179,-99999.0,'11133222,11111222,99999999' 
TABS,ioos:station:wmo:42048:1,2002-04-02T06:00:00Z,27.9396,-96.8429,2.0,219.3580835,9.350818146,-99999.0,'11133222,11111222,99999999' 
TABS,ioos:station:wmo:42048:1,2002-04-02T06:30:00Z,27.9396,-96.8429,2.0,228.4438788,9.180686249,-99999.0,'11133222,11111222,99999999' 
TABS,ioos:station:wmo:42048:1,2002-04-02T07:00:00Z,27.9396,-96.8429,2.0,231.9293217,9.260032397,-99999.0,'11133222,11111222,99999999' 
TABS,ioos:station:wmo:42048:1,2002-04-02T07:30:00Z,27.9396,-96.8429,2.0,224.066613,10.85552855,-99999.0,'11111222,11111222,99999999' 
TABS,ioos:station:wmo:42048:1,2002-04-02T08:00:00Z,27.9396,-96.8429,2.0,222.5471798,11.40193405,-99999.0,'11111222,11111222,99999999' 
TABS,ioos:station:wmo:42048:1,2002-04-02T08:30:00Z,27.9396,-96.8429,2.0,230.5046818,10.39290623,-99999.0,'11111222,11111222,99999999' 
TABS,ioos:station:wmo:42048:1,2002-04-02T09:00:00Z,27.9396,-96.8429,2.0,233.3717753,11.36410137,-99999.0,'11111222,11111222,99999999' 
TABS,ioos:station:wmo:42048:1,2002-04-02T09:30:00Z,27.9396,-96.8429,2.0,229.8229003,11.8577443,-99999.0,'11111222,11111222,99999999' 
TABS,ioos:station:wmo:42048:1,2002-04-02T10:00:00Z,27.9396,-96.8429,2.0,227.005327,12.72864879,-99999.0,'11111222,11111222,99999999' 
TABS,ioos:station:wmo:42048:1,2002-04-02T10:30:00Z,27.9396,-96.8429,2.0,214.5249984,14.07978693,-99999.0,'11111222,11111222,99999999' 
TABS,ioos:station:wmo:42048:1,2002-04-02T11:00:00Z,27.9396,-96.8429,2.0,219.8052676,11.55916952,-99999.0,'11111222,11111222,99999999' 
TABS,ioos:station:wmo:42048:1,2002-04-02T11:30:00Z,27.9396,-96.8429,2.0,219.3117064,10.70171949,-99999.0,'11111222,11111222,99999999' 
TABS,ioos:station:wmo:42048:1,2002-04-02T12:00:00Z,27.9396,-96.8429,2.0,215.749158,12.5804054,-99999.0,'11111222,11111222,99999999' 
TABS,ioos:station:wmo:42048:1,2002-04-02T12:30:00Z,27.9396,-96.8429,2.0,213.9989728,11.8208333,-99999.0,'11111222,11111222,99999999' 
TABS,ioos:station:wmo:42048:1,2002-04-02T13:00:00Z,27.9396,-96.8429,2.0,202.6325982,13.56461573,-99999.0,'11111222,11111222,99999999' 
TABS,ioos:station:wmo:42048:1,2002-04-02T13:30:00Z,27.9396,-96.8429,2.0,204.7774563,15.48559653,-99999.0,'11111222,11111222,99999999' 
TABS,ioos:station:wmo:42048:1,2002-04-02T14:00:00Z,27.9396,-96.8429,2.0,206.6714412,14.41371916,-99999.0,'11111222,11111222,99999999' 
TABS,ioos:station:wmo:42048:1,2002-04-02T14:30:00Z,27.9396,-96.8429,2.0,198.177216,14.77747272,-99999.0,'11111222,11111222,99999999' 
TABS,ioos:station:wmo:42048:1,2002-04-02T15:00:00Z,27.9396,-96.8429,2.0,197.3256106,16.99093876,-99999.0,'11111222,11111222,99999999' 
TABS,ioos:station:wmo:42048:1,2002-04-02T15:30:00Z,27.9396,-96.8429,2.0,192.8090829,15.0649162,-99999.0,'11111222,11111222,99999999' 
TABS,ioos:station:wmo:42048:1,2002-04-02T16:00:00Z,27.9396,-96.8429,2.0,190.952384,12.57913352,-99999.0,'11111222,11111222,99999999' 
TABS,ioos:station:wmo:42048:1,2002-04-02T16:30:00Z,27.9396,-96.8429,2.0,192.8378473,14.26663941,-99999.0,'11111222,11111222,99999999' 
TABS,ioos:station:wmo:42048:1,2002-04-02T17:00:00Z,27.9396,-96.8429,2.0,198.5534537,16.78224359,-99999.0,'11111222,11111222,99999999' 
TABS,ioos:station:wmo:42048:1,2002-04-02T17:30:00Z,27.9396,-96.8429,2.0,201.9525414,15.46104783,-99999.0,'11111222,11111222,99999999' 
TABS,ioos:station:wmo:42048:1,2002-04-02T18:00:00Z,27.9396,-96.8429,2.0,205.4561997,14.33140607,-99999.0,'11111222,11111222,99999999' 
TABS,ioos:station:wmo:42048:1,2002-04-02T18:30:00Z,27.9396,-96.8429,2.0,205.9626894,16.17213653,-99999.0,'11111222,11111222,99999999' 
TABS,ioos:station:wmo:42048:1,2002-04-02T19:00:00Z,27.9396,-96.8429,2.0,214.4386983,15.70213043,-99999.0,'11111222,11111222,99999999' 
TABS,ioos:station:wmo:42048:1,2002-04-02T19:30:00Z,27.9396,-96.8429,2.0,234.178996,16.7108019,-99999.0,'11111222,11111222,99999999' 
TABS,ioos:station:wmo:42048:1,2002-04-02T20:00:00Z,27.9396,-96.8429,2.0,240.8980297,16.57208496,-99999.0,'11111222,11111222,99999999' 
TABS,ioos:station:wmo:42048:1,2002-04-02T20:30:00Z,27.9396,-96.8429,2.0,244.6712351,15.33405361,-99999.0,'11111222,11111222,99999999' 
TABS,ioos:station:wmo:42048:1,2002-04-02T21:00:00Z,27.9396,-96.8429,2.0,253.9241142,14.51767543,-99999.0,'11111222,11111222,99999999' 
TABS,ioos:station:wmo:42048:1,2002-04-02T21:30:00Z,27.9396,-96.8429,2.0,253.2263677,14.83099457,-99999.0,'11111222,11111222,99999999' 
TABS,ioos:station:wmo:42048:1,2002-04-02T22:00:00Z,27.9396,-96.8429,2.0,259.0754445,14.56391431,-99999.0,'11111222,11111222,99999999' 
TABS,ioos:station:wmo:42048:1,2002-04-02T22:30:00Z,27.9396,-96.8429,2.0,269.4576094,14.80066215,-99999.0,'11111222,11111222,99999999' 
TABS,ioos:station:wmo:42048:1,2002-04-02T23:30:00Z,27.9396,-96.8429,2.0,272.6011032,13.88430049,-99999.0,'11111222,11111222,99999999' 
TABS,ioos:station:wmo:42048:1,2002-04-03T00:00:00Z,27.9396,-96.8429,2.0,276.2768855,13.90333773,-99999.0,'11111222,11111222,99999999' 
TABS,ioos:station:wmo:42048:1,2002-04-03T00:30:00Z,27.9396,-96.8429,2.0,266.717563,12.75091369,-99999.0,'11111222,11111222,99999999' 
TABS,ioos:station:wmo:42048:1,2002-04-03T01:00:00Z,27.9396,-96.8429,2.0,262.898485,11.89121104,-99999.0,'11111222,11111222,99999999' 
TABS,ioos:station:wmo:42048:1,2002-04-03T01:30:00Z,27.9396,-96.8429,2.0,262.5022031,9.733211186,-99999.0,'11133222,11111222,99999999' 
TABS,ioos:station:wmo:42048:1,2002-04-03T02:00:00Z,27.9396,-96.8429,2.0,246.6011983,7.529156659,-99999.0,'11133222,11111222,99999999' 
TABS,ioos:station:wmo:42048:1,2002-04-03T02:30:00Z,27.9396,-96.8429,2.0,262.7523271,6.975729353,-99999.0,'11133222,11111222,99999999' 
TABS,ioos:station:wmo:42048:1,2002-04-03T03:00:00Z,27.9396,-96.8429,2.0,251.3072309,6.334106093,-99999.0,'11133222,11111222,99999999' 
TABS,ioos:station:wmo:42048:1,2002-04-03T03:30:00Z,27.9396,-96.8429,2.0,233.0765066,8.606003718,-99999.0,'11133222,11111222,99999999' 
TABS,ioos:station:wmo:42048:1,2002-04-03T04:00:00Z,27.9396,-96.8429,2.0,226.8472903,8.334050636,-99999.0,'11133222,11111222,99999999' 
TABS,ioos:station:wmo:42048:1,2002-04-03T04:30:00Z,27.9396,-96.8429,2.0,224.9142959,9.489383542,-99999.0,'11133222,11111222,99999999' 
TABS,ioos:station:wmo:42048:1,2002-04-03T05:00:00Z,27.9396,-96.8429,2.0,221.1055668,10.0995891,-99999.0,'11111222,11111222,99999999' 
TABS,ioos:station:wmo:42048:1,2002-04-03T05:30:00Z,27.9396,-96.8429,2.0,212.7499099,11.49770847,-99999.0,'11111222,11111222,99999999' 
TABS,ioos:station:wmo:42048:1,2002-04-03T06:00:00Z,27.9396,-96.8429,2.0,209.4598083,13.72461293,-99999.0,'11111222,11111222,99999999' 
TABS,ioos:station:wmo:42048:1,2002-04-03T06:30:00Z,27.9396,-96.8429,2.0,211.7830078,15.58738593,-99999.0,'11111222,11111222,99999999' 
TABS,ioos:station:wmo:42048:1,2002-04-03T07:00:00Z,27.9396,-96.8429,2.0,214.8985896,18.14273408,-99999.0,'11111222,11111222,99999999' 
TABS,ioos:station:wmo:42048:1,2002-04-03T07:30:00Z,27.9396,-96.8429,2.0,216.9432974,17.10401415,-99999.0,'11111222,11111222,99999999' 
TABS,ioos:station:wmo:42048:1,2002-04-03T08:00:00Z,27.9396,-96.8429,2.0,215.3583465,19.71685827,-99999.0,'11111222,11111222,99999999' 
TABS,ioos:station:wmo:42048:1,2002-04-03T08:30:00Z,27.9396,-96.8429,2.0,215.2187801,18.60572224,-99999.0,'11111222,11111222,99999999' 
TABS,ioos:station:wmo:42048:1,2002-04-03T09:00:00Z,27.9396,-96.8429,2.0,217.5995576,18.99554158,-99999.0,'11111222,11111222,99999999' 
TABS,ioos:station:wmo:42048:1,2002-04-03T09:30:00Z,27.9396,-96.8429,2.0,221.195991,20.78522793,-99999.0,'11111222,11111222,99999999' 
TABS,ioos:station:wmo:42048:1,2002-04-03T10:00:00Z,27.9396,-96.8429,2.0,219.7702458,20.94683747,-99999.0,'11111222,11111222,99999999' 
TABS,ioos:station:wmo:42048:1,2002-04-03T10:30:00Z,27.9396,-96.8429,2.0,219.4873586,20.53743168,-99999.0,'11111222,11111222,99999999' 
TABS,ioos:station:wmo:42048:1,2002-04-03T11:00:00Z,27.9396,-96.8429,2.0,213.9447163,19.32317262,-99999.0,'11111222,11111222,99999999' 
TABS,ioos:station:wmo:42048:1,2002-04-03T11:30:00Z,27.9396,-96.8429,2.0,212.2024505,23.08053076,-99999.0,'11111222,11111222,99999999' 
TABS,ioos:station:wmo:42048:1,2002-04-03T12:00:00Z,27.9396,-96.8429,2.0,210.6365203,27.64945207,-99999.0,'11111222,11111222,99999999' 
TABS,ioos:station:wmo:42048:1,2002-04-03T12:30:00Z,27.9396,-96.8429,2.0,212.9363314,26.15360205,-99999.0,'11111222,11111222,99999999' 
TABS,ioos:station:wmo:42048:1,2002-04-03T13:00:00Z,27.9396,-96.8429,2.0,213.7523965,30.45305896,-99999.0,'11111222,11111222,99999999' 
TABS,ioos:station:wmo:42048:1,2002-04-03T13:30:00Z,27.9396,-96.8429,2.0,212.8631617,31.1441102,-99999.0,'11111222,11111222,99999999' 
TABS,ioos:station:wmo:42048:1,2002-04-03T14:00:00Z,27.9396,-96.8429,2.0,204.9421724,33.00865493,-99999.0,'11111222,11111222,99999999' 
TABS,ioos:station:wmo:42048:1,2002-04-03T14:30:00Z,27.9396,-96.8429,2.0,206.5443061,37.54805588,-99999.0,'11111222,11111222,99999999' 
TABS,ioos:station:wmo:42048:1,2002-04-03T15:00:00Z,27.9396,-96.8429,2.0,210.6680015,44.56278492,-99999.0,'11111222,11111222,99999999' 
TABS,ioos:station:wmo:42048:1,2002-04-03T15:30:00Z,27.9396,-96.8429,2.0,211.3400593,45.6624846,-99999.0,'11111222,11111222,99999999' 
TABS,ioos:station:wmo:42048:1,2002-04-03T16:00:00Z,27.9396,-96.8429,2.0,214.2367818,50.54935905,-99999.0,'11111222,11111222,99999999' 
TABS,ioos:station:wmo:42048:1,2002-04-03T16:30:00Z,27.9396,-96.8429,2.0,213.4367073,53.37377352,-99999.0,'11111222,11111222,99999999' 
TABS,ioos:station:wmo:42048:1,2002-04-03T17:00:00Z,27.9396,-96.8429,2.0,214.3183004,53.60113152,-99999.0,'11111222,11111222,99999999' 
TABS,ioos:station:wmo:42048:1,2002-04-03T17:30:00Z,27.9396,-96.8429,2.0,212.1652104,58.79407198,-99999.0,'11111222,11111222,99999999' 
TABS,ioos:station:wmo:42048:1,2002-04-03T18:00:00Z,27.9396,-96.8429,2.0,215.6376904,57.7693526,-99999.0,'11111222,11111222,99999999' 
TABS,ioos:station:wmo:42048:1,2002-04-03T18:30:00Z,27.9396,-96.8429,2.0,216.9167731,55.87201894,-99999.0,'11111222,11111222,99999999' 
TABS,ioos:station:wmo:42048:1,2002-04-03T19:00:00Z,27.9396,-96.8429,2.0,218.6958054,61.62930228,-99999.0,'11111222,11111222,99999999' 
TABS,ioos:station:wmo:42048:1,2002-04-03T19:30:00Z,27.9396,-96.8429,2.0,218.6165019,58.25907655,-99999.0,'11111222,11111222,99999999' 
TABS,ioos:station:wmo:42048:1,2002-04-03T20:00:00Z,27.9396,-96.8429,2.0,218.4074485,58.57509795,-99999.0,'11111222,11111222,99999999' 
TABS,ioos:station:wmo:42048:1,2002-04-03T20:30:00Z,27.9396,-96.8429,2.0,223.2153726,56.5464632,-99999.0,'11111222,11111222,99999999' 
TABS,ioos:station:wmo:42048:1,2002-04-03T21:00:00Z,27.9396,-96.8429,2.0,219.8679323,55.02132132,-99999.0,'11111222,11111222,99999999' 
TABS,ioos:station:wmo:42048:1,2002-04-03T21:30:00Z,27.9396,-96.8429,2.0,222.8504202,51.09612608,-99999.0,'11111222,11111222,99999999' 
TABS,ioos:station:wmo:42048:1,2002-04-03T22:00:00Z,27.9396,-96.8429,2.0,221.2371102,51.29094462,-99999.0,'11111222,11111222,99999999' 
TABS,ioos:station:wmo:42048:1,2002-04-03T22:30:00Z,27.9396,-96.8429,2.0,221.9311804,53.49862148,-99999.0,'11111222,11111222,99999999' 
TABS,ioos:station:wmo:42048:1,2002-04-03T23:00:00Z,27.9396,-96.8429,2.0,220.5773768,52.63818006,-99999.0,'11111222,11111222,99999999' 
TABS,ioos:station:wmo:42048:1,2002-04-03T23:30:00Z,27.9396,-96.8429,2.0,220.4278198,47.37132044,-99999.0,'11111222,11111222,99999999' 
TABS,ioos:station:wmo:42048:1,2002-04-04T00:00:00Z,27.9396,-96.8429,2.0,219.0905145,45.67430897,-99999.0,'11111222,11111222,99999999' 
TABS,ioos:station:wmo:42048:1,2002-04-04T00:30:00Z,27.9396,-96.8429,2.0,217.5356475,43.87296434,-99999.0,'11111222,11111222,99999999' 
TABS,ioos:station:wmo:42048:1,2002-04-04T01:00:00Z,27.9396,-96.8429,2.0,216.7171214,43.58815435,-99999.0,'11111222,11111222,99999999' 
TABS,ioos:station:wmo:42048:1,2002-04-04T01:30:00Z,27.9396,-96.8429,2.0,216.9418787,44.39203532,-99999.0,'11111222,11111222,99999999' 
TABS,ioos:station:wmo:42048:1,2002-04-04T02:00:00Z,27.9396,-96.8429,2.0,215.4967889,42.65824422,-99999.0,'11111222,11111222,99999999' 
TABS,ioos:station:wmo:42048:1,2002-04-04T02:30:00Z,27.9396,-96.8429,2.0,213.9759957,39.97496842,-99999.0,'11111222,11111222,99999999' 
TABS,ioos:station:wmo:42048:1,2002-04-04T04:00:00Z,27.9396,-96.8429,2.0,212.5118692,43.98315246,-99999.0,'11111222,11111222,99999999' 
TABS,ioos:station:wmo:42048:1,2002-04-04T04:30:00Z,27.9396,-96.8429,2.0,211.0383944,41.96916964,-99999.0,'11111222,11111222,99999999' 
TABS,ioos:station:wmo:42048:1,2002-04-04T05:00:00Z,27.9396,-96.8429,2.0,208.8496623,42.96219035,-99999.0,'11111222,11111222,99999999' 
TABS,ioos:station:wmo:42048:1,2002-04-04T05:30:00Z,27.9396,-96.8429,2.0,210.6294355,46.18363888,-99999.0,'11111222,11111222,99999999' 
TABS,ioos:station:wmo:42048:1,2002-04-04T06:00:00Z,27.9396,-96.8429,2.0,212.4200914,47.56335249,-99999.0,'11111222,11111222,99999999' 
TABS,ioos:station:wmo:42048:1,2002-04-04T06:30:00Z,27.9396,-96.8429,2.0,213.101397,51.85610861,-99999.0,'11111222,11111222,99999999' 
TABS,ioos:station:wmo:42048:1,2002-04-04T07:00:00Z,27.9396,-96.8429,2.0,214.9448286,52.04336365,-99999.0,'11111222,11111222,99999999' 
TABS,ioos:station:wmo:42048:1,2002-04-04T07:30:00Z,27.9396,-96.8429,2.0,212.9525828,48.71780373,-99999.0,'11111222,11111222,99999999' 
TABS,ioos:station:wmo:42048:1,2002-04-04T08:00:00Z,27.9396,-96.8429,2.0,210.6708823,40.97154622,-99999.0,'11111222,11111222,99999999' 
TABS,ioos:station:wmo:42048:1,2002-04-04T08:30:00Z,27.9396,-96.8429,2.0,211.8389376,42.7647343,-99999.0,'11111222,11111222,99999999' 
TABS,ioos:station:wmo:42048:1,2002-04-04T09:00:00Z,27.9396,-96.8429,2.0,214.4161981,42.00250112,-99999.0,'11111222,11111222,99999999' 
TABS,ioos:station:wmo:42048:1,2002-04-04T09:30:00Z,27.9396,-96.8429,2.0,211.2703856,40.34047595,-99999.0,'11111222,11111222,99999999' 
TABS,ioos:station:wmo:42048:1,2002-04-04T10:00:00Z,27.9396,-96.8429,2.0,214.9792595,41.4105361,-99999.0,'11111222,11111222,99999999' 
TABS,ioos:station:wmo:42048:1,2002-04-04T10:30:00Z,27.9396,-96.8429,2.0,215.5240161,39.85899146,-99999.0,'11111222,11111222,99999999' 
TABS,ioos:station:wmo:42048:1,2002-04-04T11:00:00Z,27.9396,-96.8429,2.0,221.8474563,36.64822642,-99999.0,'11111222,11111222,99999999' 
TABS,ioos:station:wmo:42048:1,2002-04-04T11:30:00Z,27.9396,-96.8429,2.0,214.2878133,35.07560406,-99999.0,'11111222,11111222,99999999' 
TABS,ioos:station:wmo:42048:1,2002-04-04T12:00:00Z,27.9396,-96.8429,2.0,216.1134974,36.07114082,-99999.0,'11111222,11111222,99999999' 
TABS,ioos:station:wmo:42048:1,2002-04-04T12:30:00Z,27.9396,-96.8429,2.0,222.2533812,32.76253043,-99999.0,'11111222,11111222,99999999' 
TABS,ioos:station:wmo:42048:1,2002-04-04T13:00:00Z,27.9396,-96.8429,2.0,218.8298197,36.77752167,-99999.0,'11111222,11111222,99999999' 
TABS,ioos:station:wmo:42048:1,2002-04-04T13:30:00Z,27.9396,-96.8429,2.0,218.3965523,40.1542588,-99999.0,'11111222,11111222,99999999' 
TABS,ioos:station:wmo:42048:1,2002-04-04T14:30:00Z,27.9396,-96.8429,2.0,208.0473937,38.02588592,-99999.0,'11111222,11111222,99999999' 
TABS,ioos:station:wmo:42048:1,2002-04-04T15:00:00Z,27.9396,-96.8429,2.0,211.6582941,41.15411158,-99999.0,'11111222,11111222,99999999' 
TABS,ioos:station:wmo:42048:1,2002-04-04T15:30:00Z,27.9396,-96.8429,2.0,212.8840759,42.01159959,-99999.0,'11111222,11111222,99999999' 
TABS,ioos:station:wmo:42048:1,2002-04-04T16:00:00Z,27.9396,-96.8429,2.0,210.4588388,40.69647773,-99999.0,'11111222,11111222,99999999' 
TABS,ioos:station:wmo:42048:1,2002-04-04T16:30:00Z,27.9396,-96.8429,2.0,216.2419782,45.28071665,-99999.0,'11111222,11111222,99999999' 
TABS,ioos:station:wmo:42048:1,2002-04-04T17:00:00Z,27.9396,-96.8429,2.0,214.0470719,36.02570471,-99999.0,'11111222,11111222,99999999' 
TABS,ioos:station:wmo:42048:1,2002-04-04T17:30:00Z,27.9396,-96.8429,2.0,213.2170123,38.99120414,-99999.0,'11111222,11111222,99999999' 
TABS,ioos:station:wmo:42048:1,2002-04-04T18:00:00Z,27.9396,-96.8429,2.0,219.2146421,49.80771225,-99999.0,'11111222,11111222,99999999' 
TABS,ioos:station:wmo:42048:1,2002-04-04T18:30:00Z,27.9396,-96.8429,2.0,211.9539652,42.75927151,-99999.0,'11111222,11111222,99999999' 
TABS,ioos:station:wmo:42048:1,2002-04-04T19:00:00Z,27.9396,-96.8429,2.0,219.0819615,45.5399451,-99999.0,'11111222,11111222,99999999' 